Location: Aarlanderveen
(52.1402°N, 4.7322°E)
Time: 07:21:38
(UTC+00:00)

Daily predictions for brighter satellites

Satellite Brightness Start Highest point End
(mag) Time Altitude Azimuth Time Altitude Azimuth Time Altitude Azimuth
Cosmos 2034 Rocket 4.1 16:33:07 10° N 16:39:29 86° E 16:45:44 10° S
NOAA 12 4.1 16:35:01 10° SSE 16:40:13 68° ENE 16:45:26 10° N
Cosmos 1300 3.8 16:38:26 10° NNE 16:41:37 24° ENE 16:44:47 10° SE
Cosmos 1943 3.4 16:37:15 10° NNW 16:42:49 51° NE 16:48:19 10° SE
In-Cosmos 22 4.1 16:38:47 10° S 16:44:15 76° E 16:49:39 10° NNE
Spot 2 4.4 16:39:43 10° SSE 16:44:26 83° WSW 16:48:56 10° NNW
Cosmos 1908 3.2 16:46:15 10° N 16:50:07 78° ENE 16:54:00 10° SSE
Cosmos 2219 3.8 16:46:23 10° SW 16:52:01 56° NW 16:57:41 10° NNE
Cosmos 2082 Rocket 4.2 16:50:14 10° NNW 16:52:15 12° N 16:54:17 10° NNE
ATLAS 2AS CENTAUR R/B 3.2 16:44:35 10° SSW 16:52:23 64° SE 17:00:04 10° NE
Lacrosse 5 2.2 16:48:23 10° WNW 16:53:20 51° N 16:58:16 10° E
ARGOS 4.4 16:51:38 10° E 16:55:15 19° NE 16:58:51 10° N
Cosmos 773 Rocket 4.4 16:50:23 10° NNW 16:55:16 39° NE 17:00:05 10° SE
Helios 1A Rocket 4.5 16:54:30 10° E 16:57:05 16° ENE 16:59:42 10° NNE
Cosmos 1634 Rocket 4.0 16:52:50 10° N 16:59:00 61° ENE 17:05:11 10° SSE
Cosmos 1707 3.9 16:55:42 10° SSW 16:59:22 43° WNW 17:03:04 10° N
Okean-O 3.7 17:01:18 10° ESE 17:04:51 24° ENE 17:08:24 10° N
AQUARIUS 4.2 17:01:34 10° SSE 17:06:05 86° WSW 17:10:36 10° NNW
COSMO-SKYMED 1 3.6 17:02:48 10° NE 17:06:27 25° E 17:10:04 10° SSE
Cosmos 2344 4.4 16:59:32 10° WNW 17:07:14 44° NNE 17:16:36 12° E
Landsat 5 3.3 17:04:44 10° NNE 17:08:49 87° ESE 17:12:43 10° SSW
Cosmos 1536 Rocket 3.5 17:05:45 10° S 17:10:06 74° E 17:14:33 10° NNE
SeaSat 1 3.8 17:05:40 10° NNE 17:10:07 34° NW 17:14:33 10° WSW
Cosmos 2227 Rocket 3.0 17:05:01 10° SW 17:10:33 51° NW 17:16:07 10° NNE
Cosmos 1674 2.8 17:08:28 10° SSW 17:12:18 81° W 17:16:11 10° N
RESURS DK-1 2.9 17:09:04 10° S 17:12:56 40° ESE 17:16:12 14° NE
ERS-2 3.7 17:12:03 15° ENE 17:13:04 17° E 17:15:28 10° SE
Okean O Rocket 1.7 17:08:38 10° SSE 17:13:05 84° WSW 17:17:34 10° NNW
CZ-4C R/B 3.0 17:11:54 10° N 17:15:02 70° WNW 17:18:11 10° SSW
CZ-4B R/B 2.3 17:12:31 11° NE 17:15:22 28° E 17:18:20 10° SSE
Cosmos 1538 Rocket 4.5 17:14:07 10° NNW 17:18:57 37° NE 17:23:44 10° ESE
CZ-4C R/B 2.2 17:17:56 10° SW 17:23:02 84° SE 17:28:31 14° NE
USA 234 3.4 17:19:06 13° E 17:24:56 62° N 17:31:23 10° WNW
CZ-4B R/B 3.8 17:20:01 10° S 17:25:30 63° WSW 17:31:07 10° NNW
Cosmos 1400 Rocket 4.1 17:21:47 10° NNW 17:25:45 45° W 17:29:39 10° SSW
Cosmos 1844 Rocket 4.4 17:23:33 10° ESE 17:25:29 13° E 17:25:29 13° E
Tsikada Rocket 4.1 17:19:58 10° S 17:26:20 85° WNW 17:32:38 10° N
TIMED 4.4 17:22:07 10° NNW 17:26:31 81° ENE 17:30:54 10° SSE
Cosmos 783 Rocket 4.4 17:23:22 10° NNW 17:28:38 85° ENE 17:33:53 10° SSE
CZ-2D R/B 3.3 17:25:58 10° SSE 17:29:45 56° ENE 17:33:33 10° N
Cosmos 1603 3.9 17:25:14 10° NNW 17:30:57 77° WSW 17:36:40 10° SSE
Cosmos 1354 Rocket 4.2 17:26:06 10° S 17:31:16 55° ESE 17:36:16 11° NNE
Meteor 2-5 Rocket 3.7 17:26:01 10° S 17:31:31 63° E 17:36:59 10° NNE
SL-14 R/B 3.2 17:28:07 10° S 17:31:56 62° E 17:35:49 10° NNE
Cosmos 1025 Rocket 4.1 17:28:46 10° SSW 17:32:57 47° WNW 17:37:11 10° N
IRS-1C Rocket 4.1 17:29:16 10° SSE 17:34:26 62° ENE 17:39:38 10° N
Cosmos 2142 Rocket 4.4 17:29:23 10° N 17:35:37 78° E 17:41:46 10° SSE
Cosmos 2297 Rocket 3.6 17:30:37 10° WSW 17:35:41 33° NW 17:40:47 10° NNE
ATLAS 3B R/B 3.5 17:31:15 10° NW 17:37:59 56° SW 17:44:58 10° SSE
COSMOS 2455 3.9 17:33:47 10° SSE 17:38:30 24° ESE 17:40:26 21° E
Cosmos 1606 Rocket 3.4 17:38:08 10° N 17:42:31 81° E 17:46:55 10° SSE
Cosmos 1486 Rocket 4.3 17:37:19 10° SSW 17:42:33 70° WNW 17:47:47 10° NNE
H-2A R/B 2.6 17:40:32 10° N 17:45:01 64° WNW 17:49:23 10° SSW
Cosmos 2082 4.5 17:39:39 10° SW 17:45:12 50° NW 17:50:47 10° NNE
YAOGAN 1 2.8 17:41:09 10° SE 17:45:18 47° ENE 17:49:28 10° N
Cosmos 968 Rocket 3.9 17:40:45 10° SW 17:45:48 62° WNW 17:50:55 10° NNE
Cosmos 1892 Rocket 4.0 17:41:49 10° SSE 17:45:51 38° E 17:48:30 19° NNE
Cosmos 1626 2.6 17:47:03 10° SSW 17:50:42 61° WNW 17:54:23 10° N
CZ-2C R/B 3.1 17:45:37 10° SSE 17:50:52 82° ENE 17:56:28 10° NNW
CSL-04 Rocket 4.0 17:46:01 10° SE 17:51:03 41° ENE 17:56:10 10° N
Cosmos 1939 Rocket 3.5 17:47:22 10° S 17:51:27 61° WSW 17:55:33 10° NNW
Nadezhda 4 Rocket 4.4 17:46:55 10° SSE 17:52:36 38° E 17:58:15 10° NNE
CZ-4 R/B 4.4 17:48:47 10° SSE 17:52:55 87° ENE 17:57:06 10° NNW
CSL-04 DEB 4.5 17:49:40 10° NNE 17:53:59 86° WNW 17:58:08 10° SSW
SKYMED 2 3.5 17:50:24 10° NNE 17:54:46 69° ESE 17:59:05 10° S
MOS 1 Rocket 3.1 17:52:33 13° NNE 17:56:24 54° E 18:00:36 10° S
CZ-4 R/B 1.3 17:53:22 10° SSE 17:57:28 69° ENE 18:01:32 10° N
ATLAS 5 CENTAUR R/B 1.5 17:55:26 10° SSW 17:59:26 60° SE 18:01:05 35° ENE
CREW DRAGON DEMO-1 DEB 2.5 18:00:07 10° W 18:03:02 83° S 18:03:09 79° SE
Meteor 2-10 Rocket 3.5 17:57:24 10° N 18:03:04 73° ENE 18:08:28 10° SSE
COSMOS 2406 4.4 17:59:46 10° NNW 18:04:25 24° NE 18:04:55 24° NE
NOSS 3-1 (C) 4.2 17:58:33 10° NW 18:05:12 48° NNE 18:09:09 28° E
Cosmos 2058 Rocket 3.0 18:02:40 10° N 18:07:11 73° ENE 18:11:41 10° SSE
Cosmos 2228 3.8 18:03:16 10° NNW 18:07:25 53° W 18:11:34 10° S
SL-08 RB Rocket 4.2 18:09:16 37° ENE 18:09:16 37° ENE 18:13:10 10° N
Cosmos 1315 Rocket 4.1 18:05:18 10° NNW 18:09:04 42° W 18:12:49 10° SSW
Cosmos 1503 Rocket 4.3 18:04:32 10° SSW 18:09:54 71° WNW 18:14:35 14° NNE
SJ 16-02 3.5 18:08:08 10° SSE 18:08:46 13° SE 18:08:46 13° SE
H-2A R/B 1.8 18:07:07 10° SSE 18:12:04 76° ENE 18:17:11 10° NNW
SAR-Lupe-4 3.8 18:12:53 48° SE 18:12:53 48° SE 18:15:55 10° S
Cosmos 2263 Rocket 2.2 18:07:20 10° SSW 18:13:02 83° WNW 18:17:04 20° NNE
USA-17 4.2 18:09:53 10° SW 18:13:22 77° NW 18:13:39 69° N
Cosmos 1455 3.5 18:11:25 10° N 18:13:18 26° NNE 18:13:18 26° NNE
Okean 1-7 Rocket 3.7 18:10:52 10° S 18:15:15 51° E 18:16:13 43° NE
Cosmos 1300 4.4 18:13:51 10° NNW 18:17:21 34° W 18:20:49 10° SSW
Meteor 1-24 Rocket 3.7 18:12:33 10° SSW 18:17:55 75° WNW 18:23:16 10° N
Ariane Rocket 4.4 18:22:01 22° NNE 18:22:01 22° NNE 18:24:20 10° N
USA 229 4.2 18:13:46 10° NW 18:20:32 46° NNE 18:23:08 34° ENE
USA 229 DEB 4.2 18:13:46 10° NW 18:20:33 46° NNE 18:23:09 34° ENE
Cosmos 923 Rocket 4.1 18:15:44 10° NNW 18:21:00 52° ENE 18:22:19 42° ESE
SAR-Lupe-1 4.4 18:24:36 53° SSE 18:24:36 53° SSE 18:27:27 10° S
NOSS 3-4 (A) 4.2 18:20:07 10° WSW 18:25:55 47° NNW 18:29:31 24° NNE
NOSS 3-4 (C) 4.2 18:20:13 10° WSW 18:26:01 47° NNW 18:29:37 24° NNE
GENESIS II 4.1 18:22:26 10° SW 18:26:28 82° SE 18:26:42 76° ENE
Cosmos 1680 Rocket 3.7 18:24:26 10° NNW 18:29:33 48° ENE 18:29:33 48° ENE
Aureole 3 4.2 18:25:54 10° N 18:28:32 35° N 18:28:32 35° N
USA 267 3.9 18:29:51 33° ESE 18:30:42 34° SE 18:36:31 10° SSW
Helios 1A Rocket 3.0 18:27:36 10° S 18:31:44 76° WSW 18:35:55 10° NNW
Meteor 2-13 Rocket 4.3 18:26:09 10° S 18:32:11 65° E 18:38:16 10° NNE
SJ-11-01 4.4 18:29:29 10° S 18:34:12 77° WSW 18:38:55 10° NNW
ARGOS 3.0 18:29:25 10° SSE 18:34:47 85° ENE 18:40:12 10° NNW
NOSS 3-1 (A) 4.2 18:29:15 10° NW 18:35:56 48° NNE 18:38:03 39° ENE
CSL-04 Debris 4.1 18:30:43 10° SSE 18:36:07 89° E 18:41:33 10° NNW
Lacrosse 5 1.8 18:31:34 10° WNW 18:36:40 86° SSW 18:37:41 58° SE
Meteor 1-21 Rocket 4.2 18:33:03 10° S 18:38:13 54° ESE 18:38:13 54° ESE
Cosmos 2082 Rocket 3.7 18:34:16 10° NNW 18:37:45 21° NNE 18:37:45 21° NNE
CZ-2C R/B 3.7 18:43:09 30° SSE 18:43:09 30° SSE 18:46:14 10° S
Okean-O 3.4 18:36:44 10° S 18:41:04 52° W 18:45:25 10° NNW
USA 281 3.8 18:42:04 35° NE 18:42:04 35° NE 18:47:46 10° NNW
COSMO-SKYMED 1 3.7 18:38:46 11° N 18:42:48 43° WNW 18:46:55 10° SW
Cosmos 1833 Rocket 3.8 18:38:37 10° NNW 18:42:29 29° NNE 18:42:29 29° NNE
ATLAS 2AS CENTAUR R/B 3.5 18:35:57 10° WSW 18:43:44 54° NNW 18:48:02 27° NE
ERS-2 2.9 18:46:36 48° NW 18:46:53 50° WNW 18:50:24 10° SW
CZ-4B R/B 3.6 18:45:36 16° NNW 18:47:29 25° WNW 18:50:18 10° WSW
Cosmos 158 Rocket 3.9 18:44:55 10° NNW 18:50:15 88° ENE 18:51:25 56° SSE
RESURS DK-1 3.9 18:47:19 10° WSW 18:51:03 32° NW 18:52:07 28° NNW
Cosmos 2227 Rocket 4.4 18:52:15 10° WNW 18:56:00 18° NNW 18:59:10 12° N
Cosmos 2112 Rocket 4.4 19:00:49 10° NNW 19:04:56 54° N 19:04:56 54° N
USA 234 3.2 19:06:27 59° SE 19:07:50 84° SSW 19:14:27 10° WNW
Cosmos 1844 Rocket 3.2 19:03:07 10° SSW 19:07:13 47° S 19:07:13 47° S
CZ-4C R/B 3.4 19:07:04 10° W 19:12:14 38° NNW 19:13:43 33° N
Iridium 4 Rocket 3.7 19:09:03 10° N 19:14:56 82° W 19:15:36 70° SSW
Meteor 2-8 Rocket 4.3 19:09:09 10° NNW 19:15:15 86° W 19:16:19 63° S
Cosmos 1092 Rocket 3.8 19:10:43 10° S 19:16:56 88° E 19:17:18 80° NNE
Cosmos 2297 Rocket 4.5 19:18:50 10° NW 19:21:37 14° NNW 19:23:28 12° N
Cosmos 2344 4.1 19:14:17 10° NW 19:23:09 82° NE 19:26:40 51° ESE
COSMOS 2455 2.8 19:17:47 10° SW 19:23:37 80° W 19:23:37 80° W
CZ-4 R/B 4.4 19:30:30 10° SW 19:32:56 15° W 19:35:21 10° NW
ATLAS 5 CENTAUR R/B 3.6 19:40:23 10° W 19:42:38 26° WNW 19:42:38 26° WNW
COSMOS 2406 4.5 19:43:48 10° NNW 19:46:59 34° NNW 19:46:59 34° NNW
SJ 16-02 4.2 19:45:37 10° SW 19:45:50 11° SW 19:45:50 11° SW
NOSS 3-1 (C) 4.0 19:49:22 10° NW 19:56:35 74° SW 19:56:35 74° SW
Cosmos 2263 Rocket 4.0 19:53:18 10° W 19:57:50 24° NW 19:58:48 23° NNW
USA 229 4.2 20:04:51 10° NW 20:10:36 59° WNW 20:10:36 59° WNW
USA 229 DEB 4.2 20:04:51 10° NW 20:10:37 60° WNW 20:10:37 60° WNW
USA 267 4.3 20:17:12 37° SW 20:17:12 37° SW 20:20:52 10° WSW
Lacrosse 5 4.3 20:15:02 10° WNW 20:16:54 19° W 20:16:54 19° W
Cosmos 2082 Rocket 4.4 20:18:02 10° NNW 20:19:37 19° NNW 20:19:37 19° NNW
USA 281 4.4 20:28:56 36° NW 20:28:56 36° NW 20:32:39 10° NNW
ATLAS 2AS CENTAUR R/B 4.1 20:29:13 10° WNW 20:35:28 34° NNW 20:35:28 34° NNW
